(62973) = 1992 DT12 = 2000 VP51

Discovered at Socorro on 2000-11-03 by LINEAR.

Orbit

Orbit type: Main Belt

Note: WebGL enabled browser required.

epoch2024-03-31.0
epoch JD2460400.5
perihelion date2022-09-12.41532
perihelion JD2459834.91532
argument of perihelion (°)17.81091
ascending node (°)111.23171
inclination (°)6.65115
eccentricity0.0149691
perihelion distance (AU)2.9413978
Tisserand w.r.t. Jupiter3.2
ΔV w.r.t. Earth (km/sec)10.8
semimajor axis (AU)2.9860971
mean anomaly (°)108.03030
mean daily motion (°/day)0.19100640
aphelion distance (AU)3.031
period (years)5.16
P-vector [x]-0.62797939
P-vector [y]0.69917943
P-vector [z]0.34174554
Q-vector [x]-0.77070491
Q-vector [y]-0.61965528
Q-vector [z]-0.14846302
absolute magnitude15.26
phase slope0.15
uncertainty0
referenceMPEC 2024-C115
observations used792
oppositions18
arc length (days)11453
first opposition used1992
last opposition used2023
residual rms (arc-secs)0.75
perturbers coarse indicatorM-v
perturbers precise indicator003Ek
first observation date used1992-02-27.0
last observation date used2023-07-07.0
computer nameMPCLINUX
JD of orbit computation2456494.360664
perihelion JD uncertainty (days)1.1468E-03
argument of perihelion uncertainty (°)2.2284E-04
ascending node uncertainty (°)3.4536E-05
inclination uncertainty (°)2.5493E-06
eccentricity uncertainty 2.5945E-08
perihelion distance uncertainty (AU)7.4567E-08
Minimum Orbit Intersection Distances (in AU)
for orbit epoch: 2460200.5, reference: E2024-CB5
Mercury2.54158
Venus2.22327
Earth1.95622
Mars1.2825
Jupiter1.97237
Saturn6.10163
Uranus15.5075
Neptune26.855

Observations

811 total observations over interval: 1992 02 27.35475 – 2023 07 07.283289
These data are available for download (format description).

Date (UT) J2000 RA J2000 Dec Magn Location Ref
1992 02 27.35475 10 57 49.69 +14 38 48.0 20.1 V 691 – Steward Observatory, Kitt Peak-Spacewatch MPC 24655
1992 02 27.37612 10 57 48.64 +14 38 56.2   691 – Steward Observatory, Kitt Peak-Spacewatch MPC 24655
1992 02 27.39769 10 57 47.65 +14 39 04.5   691 – Steward Observatory, Kitt Peak-Spacewatch MPC 24655
1992 03 02.21389 10 54 49.78 +15 02 54.1   809 – European Southern Observatory, La Silla MPC 24670
2000 11 03.23196 02 55 01.62 +06 58 06.1 19.0   704 – Lincoln Laboratory ETS, New Mexico MPS 21738
2000 11 03.24658 02 55 00.71 +06 58 02.9 19.6   704 – Lincoln Laboratory ETS, New Mexico MPS 21738
2000 11 03.27599 02 54 59.26 +06 57 57.1 20.1   704 – Lincoln Laboratory ETS, New Mexico MPS 21738
2000 11 03.29008 02 54 58.51 +06 57 54.6 19.1   704 – Lincoln Laboratory ETS, New Mexico MPS 21738
2000 11 05.30975 02 53 17.86 +06 51 47.9 19.1   704 – Lincoln Laboratory ETS, New Mexico MPS 21738
2000 11 05.33722 02 53 16.46 +06 51 42.8 19.5   704 – Lincoln Laboratory ETS, New Mexico MPS 21738
2000 11 05.35103 02 53 15.72 +06 51 39.2 19.4   704 – Lincoln Laboratory ETS, New Mexico MPS 21738
2000 11 05.36756 02 53 14.94 +06 51 37.5 18.8   704 – Lincoln Laboratory ETS, New Mexico MPS 21738
2000 11 20.25773 02 41 14.09 +06 17 43.2 18.5   704 – Lincoln Laboratory ETS, New Mexico MPS 22778
2000 11 20.27232 02 41 13.39 +06 17 42.9 18.6   704 – Lincoln Laboratory ETS, New Mexico MPS 22778
2000 11 20.28688 02 41 12.71 +06 17 40.6 18.8   704 – Lincoln Laboratory ETS, New Mexico MPS 22778
2002 01 08.42337 09 19 18.47 +18 22 10.5 20.0   608 – Haleakala-AMOS MPS 49270
2002 01 08.43413 09 19 18.11 +18 22 13.7 19.9   608 – Haleakala-AMOS MPS 49270
2002 01 08.44487 09 19 17.71 +18 22 17.5 20.7   608 – Haleakala-AMOS MPS 49270
2002 01 09.33870 09 18 47.13 +18 26 51.9 19.0   704 – Lincoln Laboratory ETS, New Mexico MPS 46585
2002 01 09.35385 09 18 46.54 +18 26 56.7 19.6   704 – Lincoln Laboratory ETS, New Mexico MPS 46585
2002 01 09.36903 09 18 45.92 +18 27 01.8 19.4   704 – Lincoln Laboratory ETS, New Mexico MPS 46585
2002 01 09.38432 09 18 45.45 +18 27 05.8 19.6   704 – Lincoln Laboratory ETS, New Mexico MPS 46585
2002 01 09.39951 09 18 44.90 +18 27 09.9 19.6   704 – Lincoln Laboratory ETS, New Mexico MPS 46585
2002 01 14.38398 09 15 36.78 +18 53 49.4 18.9   704 – Lincoln Laboratory ETS, New Mexico MPS 46585
2002 01 14.39916 09 15 36.15 +18 53 54.0 19.5   704 – Lincoln Laboratory ETS, New Mexico MPS 46585
2002 01 14.41436 09 15 35.50 +18 53 58.8 19.5   704 – Lincoln Laboratory ETS, New Mexico MPS 46585
2002 01 14.44544 09 15 34.23 +18 54 10.0 19.1   704 – Lincoln Laboratory ETS, New Mexico MPS 46585
2002 01 21.29954 09 10 34.89 +19 32 47.1 19.6   704 – Lincoln Laboratory ETS, New Mexico MPS 57077
2002 01 21.32945 09 10 33.55 +19 33 00.6 19.8   704 – Lincoln Laboratory ETS, New Mexico MPS 57077
2002 01 21.34442 09 10 32.83 +19 33 05.4 20.1   704 – Lincoln Laboratory ETS, New Mexico MPS 57077
2002 01 21.35972 09 10 32.08 +19 33 11.0 19.6   704 – Lincoln Laboratory ETS, New Mexico MPS 57077
2002 02 03.49466 08 59 40.50 +20 47 29.2 19.6   608 – Haleakala-AMOS MPS 49270
2002 02 03.50496 08 59 39.95 +20 47 32.8 19.6   608 – Haleakala-AMOS MPS 49270
2002 02 03.51561 08 59 39.39 +20 47 36.3 19.8   608 – Haleakala-AMOS MPS 49270
2002 02 05.26615 08 58 10.39 +20 57 01.0 18.9 R 699 – Lowell Observatory-LONEOS MPS 49270
2002 02 05.29142 08 58 09.08 +20 57 08.3   699 – Lowell Observatory-LONEOS MPS 49270
2002 02 05.31678 08 58 07.73 +20 57 17.5   699 – Lowell Observatory-LONEOS MPS 49270
2002 02 05.34187 08 58 06.43 +20 57 24.6   699 – Lowell Observatory-LONEOS MPS 49270
2002 02 06.22197 08 57 21.91 +21 02 03.3 19.3 V 333 – Desert Eagle Observatory MPS 49270
2002 02 06.24397 08 57 20.81 +21 02 09.9 19.0 V 333 – Desert Eagle Observatory MPS 49270
2002 02 06.26601 08 57 19.63 +21 02 18.0 19.1 V 333 – Desert Eagle Observatory MPS 49270
2002 02 07.31210 08 56 26.64 +21 07 45.0 19.0   704 – Lincoln Laboratory ETS, New Mexico MPS 49270
2002 02 07.32655 08 56 25.94 +21 07 49.3 19.5   704 – Lincoln Laboratory ETS, New Mexico MPS 49270
2002 02 07.34099 08 56 25.10 +21 07 53.3 19.4   704 – Lincoln Laboratory ETS, New Mexico MPS 49270
2002 02 07.35540 08 56 24.39 +21 07 57.9 19.8   704 – Lincoln Laboratory ETS, New Mexico MPS 49270
2002 02 07.36999 08 56 23.62 +21 08 02.6 19.1   704 – Lincoln Laboratory ETS, New Mexico MPS 49270
2002 02 07.52096 08 56 15.96 +21 08 50.5 20.1   608 – Haleakala-AMOS MPS 49270
2002 02 07.53141 08 56 15.44 +21 08 53.8 20.1   608 – Haleakala-AMOS MPS 49270
2002 02 07.54245 08 56 14.85 +21 08 57.0 19.7   608 – Haleakala-AMOS MPS 49270
2002 02 10.23665 08 54 00.75 +21 22 33.2 18.6   704 – Lincoln Laboratory ETS, New Mexico MPS 49270
2002 02 10.25079 08 54 00.01 +21 22 37.4 19.0   704 – Lincoln Laboratory ETS, New Mexico MPS 49270
2002 02 10.26784 08 53 59.13 +21 22 42.9 19.4   704 – Lincoln Laboratory ETS, New Mexico MPS 49270
2002 02 10.28305 08 53 58.38 +21 22 47.3 19.3   704 – Lincoln Laboratory ETS, New Mexico MPS 49270
2002 02 10.29813 08 53 57.59 +21 22 51.8 19.2   704 – Lincoln Laboratory ETS, New Mexico MPS 49270
2002 02 12.23791 08 52 22.88 +21 32 15.7 19.4   704 – Lincoln Laboratory ETS, New Mexico MPS 52201
2002 02 12.25215 08 52 22.15 +21 32 19.4 19.6   704 – Lincoln Laboratory ETS, New Mexico MPS 52201
2002 02 12.26637 08 52 21.47 +21 32 23.3 19.9   704 – Lincoln Laboratory ETS, New Mexico MPS 52201
2002 02 12.28084 08 52 20.74 +21 32 26.8 19.6   704 – Lincoln Laboratory ETS, New Mexico MPS 52201
2002 02 12.29506 08 52 20.03 +21 32 31.1 19.4   704 – Lincoln Laboratory ETS, New Mexico MPS 52201
2002 02 13.23952 08 51 34.77 +21 36 57.6 19.4   704 – Lincoln Laboratory ETS, New Mexico MPS 52201
2002 02 13.25429 08 51 33.98 +21 37 01.7 19.8   704 – Lincoln Laboratory ETS, New Mexico MPS 52201
2002 02 13.26908 08 51 33.27 +21 37 05.8 19.2   704 – Lincoln Laboratory ETS, New Mexico MPS 52201
2002 02 13.29904 08 51 31.79 +21 37 14.4 19.6   704 – Lincoln Laboratory ETS, New Mexico MPS 52201
2002 02 20.23309 08 46 19.30 +22 06 58.5 19.1   704 – Lincoln Laboratory ETS, New Mexico MPS 52201
2002 02 20.24686 08 46 18.65 +22 07 01.7 19.2   704 – Lincoln Laboratory ETS, New Mexico MPS 52201
2002 02 20.26059 08 46 18.06 +22 07 05.1 19.4   704 – Lincoln Laboratory ETS, New Mexico MPS 52201
2002 02 20.27447 08 46 17.47 +22 07 08.0 19.5   704 – Lincoln Laboratory ETS, New Mexico MPS 52201
2002 02 20.28826 08 46 16.89 +22 07 11.3 19.6   704 – Lincoln Laboratory ETS, New Mexico MPS 52201
2002 03 12.12403 08 36 22.26 +23 00 34.0 19.8   644 – Palomar Mountain/NEAT MPS 52201
2002 03 12.14490 08 36 21.86 +23 00 35.7 20.4   644 – Palomar Mountain/NEAT MPS 52201
2002 03 12.16569 08 36 21.50 +23 00 37.4 20.3   644 – Palomar Mountain/NEAT MPS 52201
2003 04 27.27346 14 43 36.08 -05 51 49.7 19.0   704 – Lincoln Laboratory ETS, New Mexico MPS 78046
2003 04 27.28258 14 43 35.71 -05 51 50.0 19.1 R 699 – Lowell Observatory-LONEOS MPS 78046
2003 04 27.28540 14 43 35.50 -05 51 47.5 19.2   704 – Lincoln Laboratory ETS, New Mexico MPS 78046
2003 04 27.29671 14 43 34.96 -05 51 46.2   699 – Lowell Observatory-LONEOS MPS 78046
2003 04 27.29743 14 43 34.89 -05 51 45.5 19.0   704 – Lincoln Laboratory ETS, New Mexico MPS 78046
2003 04 27.30936 14 43 34.32 -05 51 43.0 18.9   704 – Lincoln Laboratory ETS, New Mexico MPS 78046
2003 04 27.31085 14 43 34.26 -05 51 43.3   699 – Lowell Observatory-LONEOS MPS 78046
2003 04 27.33424 14 43 33.12 -05 51 38.4   699 – Lowell Observatory-LONEOS MPS 78046
2003 05 02.27824 14 39 37.44 -05 35 14.1 19.6   704 – Lincoln Laboratory ETS, New Mexico MPS 78046
2003 05 02.29005 14 39 36.76 -05 35 12.2 19.0   704 – Lincoln Laboratory ETS, New Mexico MPS 78046
2003 05 02.30175 14 39 36.20 -05 35 09.6 19.4   704 – Lincoln Laboratory ETS, New Mexico MPS 78046
2003 05 02.31361 14 39 35.60 -05 35 07.4 18.9   704 – Lincoln Laboratory ETS, New Mexico MPS 78046
2003 05 05.27283 14 37 13.95 -05 26 12.6 19.0 R 699 – Lowell Observatory-LONEOS MPS 78046
2003 05 05.29156 14 37 13.02 -05 26 08.5   699 – Lowell Observatory-LONEOS MPS 78046
2003 05 05.31014 14 37 12.15 -05 26 06.3   699 – Lowell Observatory-LONEOS MPS 78046
